IRIDIUM 47 DEB, 40254

Orbit data source: Space-Track

IRIDIUM 47 DEB, 40254 is space debris in LEO originally from a launch on Sat, 20 Dec 1997 UTC launched from the Air Force Western Test Range (AFWTR). Debris objects in space refer to the collection of defunct objects orbiting the Earth. Examples of debris include non-operational satellites, rocket bodies, and fragments generated from explosions, collisions, or faulty payload assembly.

Loading next visibility...
Identifier
40254, 1997-082P
Orbit
LEO
Country
Flag of USUS
Related business
Manufacturer
Unknown
Mission
Spacecraft
Bus & Motor
Unknown
Mass
Unknown
Launch date (UTC)
1997-12-20 (28 years ago)
Launch vehicle
Unknown
Launch site
Air Force Western Test Range (AFWTR)
Object type
Payload
Rocket body
Debris
Shape & HBR
Unknown shape, 0.1 m
Radar Cross Section
Small (<0.1 m²)

Expand to show TLE details & history
Last TLE update: 22 hours ago

TLE from 22 hours ago
0 IRIDIUM 47 DEB
1 40254U 97082P   25310.33785161  .00037689  00000-0  81106-2 0  9997
2 40254  85.9838 326.3674 0092827 189.2871 170.6624 14.55622164569814
Epoch: 2025-11-06T08:06Z
TLE epoch observation values (Epoch: 2025-11-06T08:06:30.379Z)
Latitude
-0.00007°
Longitude
158.94321°
Altitude
775.351 km
Speed
7.432 km/s
True Right ascension
21h 45m 28s
True Declination
0° 00' 00"
Sunlit
Object was in daylight at epoch
Visualization orbit readout
Latitude
Unknown
Longitude
Unknown
Altitude
Unknown
Speed
Unknown
Apparent Right ascension
Unknown
Apparent Declination
Unknown
Sunlit
N/A
Visualization observer readout
Local Sidereal Time
02:33:26
Azimuth
Unknown
Elevation
Unknown
Doppler factor
Unknown
Orbital elements
Apogee altitude
770.032 km
Perigee altitude
638.544 km
Semi-major axis
7,082.425 km
Eccentricity
0.00928
Inclination
85.9838°
RAAN
326.3674°
Arg. of periapsis
189.2871°
True anomaly
170.83304°
Mean anomaly
170.6624°
Eccentric anomaly
170.74791°
Mean motion
3.64142 °/min
Orbital period
98.86 mins
BSTAR
0.0081106
Loading maneuver chart data...
Computing Atmospheric mass density...

Documentation

Showing up to 5 results
|